EDT,Max TemperatureF,Mean TemperatureF,Min TemperatureF,Max Dew PointF,MeanDew PointF,Min DewpointF,Max Humidity, Mean Humidity, Min Humidity, Max Sea Level PressureIn, Mean Sea Level PressureIn, Min Sea Level PressureIn, Max VisibilityMiles, Mean VisibilityMiles, Min VisibilityMiles, Max Wind SpeedMPH, Mean Wind SpeedMPH, Max Gust SpeedMPH,PrecipitationIn, CloudCover, Events, WindDirDegrees
2013-3-1,50,42,35,34,30,27,75,60,40,29.89,29.84,29.79,10,10,10,13,7,20,0.00,7,,297
2013-3-2,42,40,37,28,27,25,70,61,49,29.91,29.87,29.84,10,10,10,12,3,,0.00,8,,327
2013-3-3,46,38,30,27,23,19,80,55,34,29.93,29.87,29.80,10,10,10,14,5,17,0.00,5,,332
2013-3-4,50,39,28,25,19,12,80,51,24,30.06,30.01,29.94,10,10,10,17,5,26,0.00,1,,302
2013-3-5,53,40,26,41,28,19,100,68,26,30.11,29.99,29.67,10,9,4,14,3,18,0.00,5,,109
2013-3-6,48,42,35,48,39,36,100,96,76,29.91,29.56,29.39,10,8,1,21,12,31,0.00,8,,307
2013-3-7,53,46,37,36,30,27,81,57,38,30.16,30.06,29.92,10,10,10,18,10,29,0.00,3,,329
2013-3-8,51,42,33,30,27,25,81,56,38,30.22,30.16,30.10,10,10,10,15,8,29,0.00,1,,323
2013-3-9,62,48,33,34,28,21,87,53,20,30.32,30.27,30.22,10,10,10,12,5,17,0.00,0,,353
2013-3-10,66,46,26,43,30,14,100,62,13,30.34,30.29,30.25,10,10,10,10,2,,0.00,0,,118
2013-3-11,71,53,35,52,45,36,100,75,41,30.28,30.14,30.00,10,9,1,17,5,22,0.00,1,,162
2013-3-12,71,62,53,64,57,43,100,83,52,30.00,29.85,29.72,10,9,2,16,10,22,0.00,6,,190
2013-3-13,57,46,35,41,31,25,93,54,29,30.07,29.99,29.92,10,10,10,20,7,25,0.00,3,,300
2013-3-14,53,42,30,25,19,16,64,42,22,30.20,30.12,30.06,10,10,10,17,8,25,0.00,0,,295
2013-3-15,60,44,28,34,26,18,93,51,21,30.16,30.03,29.87,10,10,10,15,3,25,0.00,0,,231
2013-3-16,75,62,48,59,45,32,100,63,36,29.89,29.77,29.60,10,8,0,17,6,34,0.00,3,,212
2013-3-17,55,48,39,55,42,36,100,89,76,30.25,30.08,29.83,10,9,0,13,8,20,0.00,7,,51
2013-3-18,46,42,39,46,43,37,100,100,93,30.25,30.12,29.88,10,3,0,14,7,18,0.00,8,,55
2013-3-19,66,52,39,48,36,12,100,66,18,29.97,29.84,29.78,10,7,0,15,5,26,0.00,4,,280
2013-3-20,55,46,37,27,16,10,65,31,18,30.09,29.96,29.80,10,10,10,10,6,18,0.00,0,,244
2013-3-21,42,37,32,30,25,12,81,60,33,29.95,29.79,29.70,10,9,1,15,6,23,0.00,5,,315
2013-3-22,53,40,26,25,14,10,75,41,18,30.06,29.99,29.92,10,10,10,15,6,22,0.00,0,,272
2013-3-23,57,42,26,34,27,19,100,64,23,30.06,29.99,29.91,10,10,10,9,1,17,0.00,2,,246
2013-3-24,44,37,30,41,35,30,100,92,57,29.96,29.80,29.60,10,8,2,16,4,22,0.00,4,,49
2013-3-25,46,40,33,37,36,30,100,89,53,29.74,29.59,29.50,10,8,2,26,6,34,0.00,7,,295
2013-3-26,50,40,30,36,30,27,100,66,43,30.04,29.88,29.75,10,10,10,14,5,23,0.00,4,,289
2013-3-27,53,43,33,30,27,21,81,54,30,30.17,30.10,30.04,10,10,10,15,7,23,0.00,3,,296
2013-3-28,55,44,32,30,26,23,80,52,29,30.25,30.17,30.12,10,10,1,15,7,25,0.00,2,,305
2013-3-29,59,44,28,37,29,25,93,61,27,30.30,30.24,30.17,10,10,10,13,2,20,0.00,4,,306
2013-3-30,66,48,30,39,31,25,100,58,22,30.23,30.18,30.11,10,10,10,10,2,17,0.00,2,,207
2013-3-31,66,56,46,57,48,34,100,76,58,30.15,29.94,29.80,10,9,2,10,6,,0.00,4,,178